STARLINK-32122, 60285

Orbit data source: Space-Track

STARLINK-32122, 60285 is a payload satellite owned by SpaceX/Seattle (US) in LEO that was launched on Sun, 28 Jul 2024 UTC via an FALCON 9 launch vehicle from the Air Force Eastern Test Range (AFETR). Payloads include a variety of satellites, spacecraft, and rockets equipped with specific instruments for various scientific and technological missions. These include communications satellites like Starlink; space stations such as the ISS; scientific satellites like the Hubble; Earth observation satellites from companies like Planet Labs, Umbra, and HawkEye 360; GPS; miniature CubeSats for education and research; and military/defense satellites.

Loading next visibility...
STARLINK-32122 details
Identifier
60285, 2024-132H
Orbit
LEO
Last TLE update15 hours ago
Origin
Flag of USSpaceX/Seattle (US)
ManufacturerSpaceX/Seattle
MissionOperational spacecraft
Bus & MotorSTARLINK V2M, Unknown motor
Mass730 kg wet, ~700 kg dry
Launch date (UTC)
2024-07-28 (5 months ago)
Launch vehicle
FALCON 9
Launch site
Air Force Eastern Test Range (AFETR)
Object type
Payload
Rocket body
Debris
Shape & HBRUnknown
Radar Cross SectionLarge (>1 m²)

Expand to show TLE details & history

TLE from 15 hours ago
0 STARLINK-32122
1 60285U 24132H   24355.89945943  .00000120  00000-0  16194-4 0  9991
2 60285  53.1608 313.8243 0001336  86.6003 273.5151 15.30195470 23617
Epoch: 2024-12-20T21:35Z
Definitive object data (Epoch: 2024-12-20T21:35:13.294Z)
Latitude-0°
Longitude-99.93944°
Altitude476.072 km
Speed7.629 km/s
True Right ascension20h 55m 17s
True Declination0° 00' 00"
Sunlit
Object was in daylight at TLE epoch
Visualization TLE readout
Latitude-34.33362°
Longitude107.72843°
Altitude486.74 km
Speed7.621 km/s
Apparent Right ascension07h 17m 09s
Apparent Declination-79° 14' 44"
Sunlit
Object is in daylight
Visualization observer readout
Local Sidereal Time11:42:09
Azimuth192.026° SSW
Elevation-34.943°
Doppler factor1
Orbital elements
Apogee altitude476.401 km
Perigee altitude474.569 km
Semi-major axis6,853.622 km
Eccentricity0.0001336
Inclination53.1608°
RAAN313.8243°
Arg. of periapsis86.6003°
True anomaly273.49982°
Mean anomaly273.5151°
Eccentric anomaly273.50746°
Mean motion3.82528 °/min
BSTAR0.000016194
Orbital period94.11 mins
Loading maneuver chart data...
Loading historical data...
Loading historical data...
Loading historical data...
Loading historical data...
Loading historical data...
Loading historical data...
Loading historical data...

STARLINK-32122 Visibility forecast

Observer location: undefined°, undefined

Span
Click to sort rows by Start time (UTC) header in descending order
Start Az.
Max El. time (UTC)
Max El. Az.
Max El.
End time (UTC)
End Az.
4 mins2024-12-21 22:49:19.158Z164.197° S2024-12-21 22:51:19.158Z128.196° SE16.183°2024-12-21 22:53:19.158Z91.903° ESE
5 mins2024-12-22 00:27:19.158Z257.678° W2024-12-22 00:29:19.158Z352.08° N38.138°2024-12-22 00:32:19.158Z42.101° NE
4 mins2024-12-22 05:24:19.158Z352.995° N2024-12-22 05:25:19.158Z14.316° NNE19.667°2024-12-22 05:28:19.158Z73.554° E
5 mins2024-12-22 07:02:19.158Z296.471° NW2024-12-22 07:04:19.158Z185.24° SSW41.059°2024-12-22 07:07:19.158Z141.275° SSE
|